User: anonymous   Login
Location: Karlovy Vary
(50.2170°N, 12.9000°E)
Time: 14:28:02
(UTC+01:00)
Language:

ISS - Orbit

View from above orbital plane
View from above orbital plane
View from above satellite
View from above satellite

Ground track
Ground track

The orbit data is extracted from the following two-line orbital elements,

1 25544U 98067A   14352.29577605  .00030141  00000-0  48977-3 0  5843
2 25544 051.6482 266.5793 0007739 144.8454 005.8804 15.52412411919899
Epoch (UTC): 18 December 2014 07:05:55
Eccentricity: 0.0007739
inclination: 51.6482°
perigee height: 404 km
apogee height: 415 km
right ascension of ascending node: 266.5793°
argument of perigee: 144.8454°
revolutions per day: 15.52412411
mean anomaly at epoch: 5.8804°
orbit number at epoch: 91989

The dashed part of the orbit path shows where the satellite is in the earth's shadow,  

DLR